• In Czech Republic
  • List of Countries
  • For 7 days
  • Water Temperature
  • Satellite Maps
  • Weather Map
  • Weather Widgets
  • user-avatar
    Login

    Hourly Weather Ipswich

    Today, 18 February, Sunday

    Time Temperature Precipitation Wind Pressure Humidity
    00:00 +2°C° 0 mm 3 mps 766 mmHg 89%
    01:00 +2°C° 0 mm 3 mps 766 mmHg 90%
    02:00 +2°C° 0 mm 3 mps 766 mmHg 91%
    03:00 +2°C° 0 mm 3 mps 766 mmHg 91%
    04:00 +2°C° 0 mm 3 mps 766 mmHg 92%
    05:00 +2°C° 0 mm 3 mps 766 mmHg 92%
    06:00 +2°C° 0 mm 3 mps 766 mmHg 92%
    07:00 +2°C° 0 mm 3 mps 766 mmHg 90%
    08:00 +3°C° 0 mm 3 mps 766 mmHg 89%
    09:00 +4°C° 0 mm 4 mps 766 mmHg 87%
    10:00 +5°C° 0 mm 4 mps 766 mmHg 83%
    11:00 +7°C° 0 mm 4 mps 766 mmHg 79%
    12:00 +8°C° 0 mm 4 mps 766 mmHg 75%
    13:00 +8°C° 0 mm 4 mps 766 mmHg 74%
    14:00 +8°C° 0 mm 4 mps 765 mmHg 73%
    15:00 +8°C° 0 mm 4 mps 765 mmHg 72%
    16:00 +7°C° 0 mm 4 mps 765 mmHg 77%
    17:00 +7°C° 0 mm 3 mps 765 mmHg 82%
    18:00 +5°C° 0 mm 3 mps 765 mmHg 87%
    19:00 +4°C° 0 mm 3 mps 765 mmHg 88%
    20:00 +4°C° 0 mm 3 mps 765 mmHg 89%
    21:00 +3°C° 0 mm 3 mps 765 mmHg 90%
    22:00 +3°C° 0 mm 3 mps 765 mmHg 90%
    23:00 +3°C° 0 mm 3 mps 765 mmHg 90%

    Tomorrow, 19 February, Monday

    Time Temperature Precipitation Wind Pressure Humidity
    00:00 +3°C° 0 mm 3 mps 765 mmHg 91%
    01:00 +3°C° 0 mm 3 mps 765 mmHg 91%
    02:00 +3°C° 0 mm 3 mps 764 mmHg 91%
    03:00 +3°C° 0 mm 3 mps 764 mmHg 92%
    04:00 +3°C° 0 mm 3 mps 764 mmHg 92%
    05:00 +3°C° 0 mm 3 mps 764 mmHg 93%
    06:00 +3°C° 0 mm 3 mps 764 mmHg 93%
    07:00 +4°C° 0 mm 3 mps 764 mmHg 92%
    08:00 +5°C° 0 mm 3 mps 764 mmHg 91%
    09:00 +5°C° 0 mm 4 mps 764 mmHg 90%
    10:00 +6°C° 0.1 mm 4 mps 764 mmHg 90%
    11:00 +6°C° 0.1 mm 4 mps 763 mmHg 90%
    12:00 +7°C° 0.1 mm 4 mps 763 mmHg 90%
    13:00 +7°C° 0.2 mm 4 mps 763 mmHg 91%
    14:00 +7°C° 0.2 mm 4 mps 762 mmHg 92%
    15:00 +7°C° 0.2 mm 4 mps 762 mmHg 94%
    16:00 +7°C° 0.3 mm 4 mps 762 mmHg 94%
    17:00 +7°C° 0.3 mm 4 mps 762 mmHg 95%
    18:00 +7°C° 0.3 mm 4 mps 762 mmHg 96%
    19:00 +7°C° 0.2 mm 4 mps 761 mmHg 96%
    20:00 +7°C° 0.2 mm 4 mps 761 mmHg 95%
    21:00 +8°C° 0.2 mm 5 mps 761 mmHg 95%
    22:00 +8°C° 0.3 mm 5 mps 761 mmHg 95%
    23:00 +8°C° 0.3 mm 6 mps 761 mmHg 94%

    Day after tomorrow, 20 February, Tuesday

    Time Temperature Precipitation Wind Pressure Humidity
    00:00 +8°C° 0.3 mm 6 mps 761 mmHg 94%
    01:00 +8°C° 0.2 mm 6 mps 761 mmHg 93%
    02:00 +6°C° 0.2 mm 7 mps 760 mmHg 92%
    03:00 +6°C° 0.2 mm 7 mps 760 mmHg 92%
    04:00 +6°C° 0.3 mm 7 mps 761 mmHg 92%
    05:00 +6°C° 0.3 mm 7 mps 761 mmHg 91%
    06:00 +6°C° 0.3 mm 7 mps 761 mmHg 91%
    07:00 +6°C° 0.1 mm 7 mps 761 mmHg 91%
    08:00 +5°C° 0.1 mm 7 mps 762 mmHg 90%
    09:00 +5°C° 0.1 mm 7 mps 763 mmHg 90%
    10:00 +5°C° 0.1 mm 7 mps 763 mmHg 89%
    11:00 +5°C° 0.1 mm 6 mps 763 mmHg 87%
    12:00 +7°C° 0.1 mm 6 mps 764 mmHg 86%
    13:00 +5°C° 0 mm 7 mps 764 mmHg 83%
    14:00 +5°C° 0 mm 7 mps 765 mmHg 81%
    15:00 +5°C° 0 mm 8 mps 765 mmHg 78%
    16:00 +5°C° 0 mm 8 mps 765 mmHg 79%
    17:00 +4°C° 0 mm 8 mps 766 mmHg 80%
    18:00 +2°C° 0 mm 8 mps 766 mmHg 81%
    19:00 +3°C° 0 mm 7 mps 767 mmHg 81%
    20:00 +3°C° 0 mm 7 mps 767 mmHg 80%
    21:00 +3°C° 0 mm 7 mps 768 mmHg 79%
    22:00 +3°C° 0 mm 7 mps 768 mmHg 80%
    23:00 +3°C° 0 mm 6 mps 768 mmHg 80%

    21 February, Wednesday

    Time Temperature Precipitation Wind Pressure Humidity
    00:00 +3°C° 0 mm 6 mps 768 mmHg 80%
    01:00 +3°C° 0 mm 6 mps 768 mmHg 81%
    02:00 +2°C° 0 mm 5 mps 768 mmHg 82%
    03:00 +2°C° 0 mm 5 mps 768 mmHg 84%
    04:00 +2°C° 0 mm 5 mps 768 mmHg 86%
    05:00 +1°C° 0 mm 5 mps 768 mmHg 88%
    06:00 +1°C° 0 mm 5 mps 768 mmHg 90%
    07:00 +1°C° 0 mm 5 mps 769 mmHg 87%
    08:00 +2°C° 0 mm 5 mps 769 mmHg 84%
    09:00 +3°C° 0 mm 5 mps 769 mmHg 81%
    10:00 +3°C° 0 mm 5 mps 769 mmHg 78%
    11:00 +5°C° 0 mm 5 mps 769 mmHg 75%
    12:00 +5°C° 0 mm 5 mps 768 mmHg 73%
    13:00 +5°C° 0 mm 5 mps 768 mmHg 72%
    14:00 +5°C° 0 mm 5 mps 768 mmHg 72%
    15:00 +5°C° 0 mm 5 mps 767 mmHg 71%
    16:00 +3°C° 0 mm 5 mps 767 mmHg 74%
    17:00 +3°C° 0 mm 5 mps 767 mmHg 77%
    18:00 +2°C° 0 mm 5 mps 767 mmHg 80%
    19:00 +2°C° 0 mm 5 mps 768 mmHg 81%
    20:00 +1°C° 0 mm 5 mps 768 mmHg 82%
    21:00 +1°C° 0 mm 5 mps 768 mmHg 84%
    22:00 +1°C° 0 mm 5 mps 767 mmHg 85%
    23:00 0°C° 0 mm 5 mps 767 mmHg 87%

    22 February, Thursday

    Time Temperature Precipitation Wind Pressure Humidity
    00:00 0°C° 0 mm 5 mps 767 mmHg 88%
    01:00 0°C° 0 mm 5 mps 767 mmHg 88%
    02:00 0°C° 0 mm 5 mps 766 mmHg 88%
    03:00 -1°C° 0 mm 5 mps 766 mmHg 87%
    04:00 -1°C° 0 mm 5 mps 766 mmHg 87%
    05:00 -1°C° 0 mm 5 mps 766 mmHg 88%
    06:00 -1°C° 0 mm 5 mps 765 mmHg 88%
    07:00 0°C° 0 mm 5 mps 765 mmHg 83%
    08:00 +1°C° 0 mm 6 mps 765 mmHg 79%
    09:00 +2°C° 0 mm 6 mps 765 mmHg 74%
    10:00 +2°C° 0.1 mm 6 mps 765 mmHg 72%
    11:00 +3°C° 0.1 mm 6 mps 765 mmHg 70%
    12:00 +3°C° 0.1 mm 6 mps 765 mmHg 67%
    13:00 +3°C° 0 mm 6 mps 765 mmHg 67%
    14:00 +3°C° 0 mm 6 mps 765 mmHg 67%
    15:00 +3°C° 0 mm 6 mps 764 mmHg 67%
    16:00 +2°C° 0 mm 6 mps 765 mmHg 71%
    17:00 +1°C° 0 mm 6 mps 765 mmHg 75%
    18:00 -1°C° 0 mm 6 mps 765 mmHg 79%
    19:00 -1°C° 0 mm 6 mps 765 mmHg 80%
    20:00 -1°C° 0 mm 6 mps 765 mmHg 80%
    21:00 -1°C° 0 mm 6 mps 765 mmHg 80%
    22:00 -1°C° 0 mm 6 mps 765 mmHg 78%
    23:00 -1°C° 0 mm 6 mps 765 mmHg 76%

    23 February, Friday

    Time Temperature Precipitation Wind Pressure Humidity
    00:00 -1°C° 0 mm 6 mps 765 mmHg 74%
    01:00 -1°C° 0 mm 6 mps 765 mmHg 75%
    02:00 -1°C° 0 mm 6 mps 765 mmHg 75%
    03:00 -1°C° 0 mm 6 mps 765 mmHg 75%
    04:00 -1°C° 0 mm 6 mps 765 mmHg 75%
    05:00 -1°C° 0 mm 6 mps 765 mmHg 76%
    06:00 -2°C° 0 mm 6 mps 765 mmHg 76%
    07:00 -1°C° 0 mm 6 mps 765 mmHg 73%
    08:00 0°C° 0 mm 7 mps 766 mmHg 70%
    09:00 0°C° 0 mm 7 mps 766 mmHg 67%
    10:00 +2°C° 0 mm 7 mps 766 mmHg 66%
    11:00 +2°C° 0 mm 7 mps 766 mmHg 65%
    12:00 +2°C° 0 mm 7 mps 766 mmHg 64%
    13:00 +2°C° 0 mm 7 mps 766 mmHg 64%
    14:00 +2°C° 0 mm 7 mps 766 mmHg 64%
    15:00 0°C° 0 mm 7 mps 766 mmHg 65%
    16:00 -1°C° 0 mm 7 mps 766 mmHg 68%
    17:00 -2°C° 0 mm 7 mps 766 mmHg 72%
    18:00 -3°C° 0 mm 6 mps 766 mmHg 76%
    19:00 -3°C° 0 mm 6 mps 767 mmHg 77%
    20:00 -3°C° 0 mm 6 mps 767 mmHg 78%
    21:00 -3°C° 0 mm 6 mps 767 mmHg 79%
    22:00 -3°C° 0 mm 6 mps 767 mmHg 77%
    23:00 -3°C° 0 mm 6 mps 768 mmHg 76%
    Show more